| time (UTC) | temp F | wind direction | speed MPH | gust MPH | rain 1hr in | rain 24hr in | rain mn in | humidity % | barometer mb |
| 20260902221607 | 67 | 153 | 4.0 | 14.0 | 0.00 | 0.00 | 0.00 | 29 | 1021.6 |
| 20260902221057 | 67 | 150 | 6.0 | 17.0 | 0.00 | 0.00 | 0.00 | 29 | 1021.7 |
| 20260902220601 | 67 | 169 | 9.0 | 21.0 | 0.00 | 0.00 | 0.00 | 27 | 1021.7 |
| 20260902220107 | 68 | 195 | 9.0 | 21.0 | 0.00 | 0.00 | 0.00 | 28 | 1021.8 |
| 20260902215558 | 68 | 150 | 8.0 | 20.0 | 0.00 | 0.00 | 0.00 | 27 | 1021.7 |
| 20260902215059 | 69 | 148 | 7.0 | 20.0 | 0.00 | 0.00 | 0.00 | 28 | 1022.0 |
| 20260902214615 | 70 | 154 | 5.0 | 20.0 | 0.00 | 0.00 | 0.00 | 25 | 1021.9 |
| 20260902214058 | 70 | 153 | 3.0 | 13.0 | 0.00 | 0.00 | 0.00 | 26 | 1021.9 |
| 20260902213557 | 70 | 144 | 2.0 | 13.0 | 0.00 | 0.00 | 0.00 | 25 | 1022.0 |
| 20260902213109 | 70 | 158 | 3.0 | 13.0 | 0.00 | 0.00 | 0.00 | 25 | 1021.8 |
| 20260902212558 | 69 | 145 | 7.0 | 16.0 | 0.00 | 0.00 | 0.00 | 26 | 1022.0 |
| 20260902212058 | 69 | 181 | 7.0 | 16.0 | 0.00 | 0.00 | 0.00 | 26 | 1021.7 |
| 20260902211606 | 69 | 163 | 3.0 | 17.0 | 0.00 | 0.00 | 0.00 | 25 | 1021.8 |
| 20260902211058 | 70 | 179 | 2.0 | 17.0 | 0.00 | 0.00 | 0.00 | 24 | 1021.8 |
| 20260902210604 | 71 | 118 | 5.0 | 17.0 | 0.00 | 0.00 | 0.00 | 24 | 1021.6 |
| 20260902210105 | 71 | 234 | 5.0 | 11.0 | 0.00 | 0.00 | 0.00 | 22 | 1021.4 |
| 20260902205559 | 72 | 208 | 4.0 | 10.0 | 0.00 | 0.00 | 0.00 | 23 | 1021.6 |
| 20260902205101 | 72 | 195 | 4.0 | 9.0 | 0.00 | 0.00 | 0.00 | 23 | 1021.5 |
| 20260902204607 | 71 | 29 | 2.0 | 5.0 | 0.00 | 0.00 | 0.00 | 24 | 1021.2 |
| 20260902204059 | 71 | 193 | 1.0 | 10.0 | 0.00 | 0.00 | 0.00 | 21 | 1021.1 |
| 20260902203558 | 71 | 104 | 3.0 | 22.0 | 0.00 | 0.00 | 0.00 | 24 | 1021.0 |
| 20260902203109 | 70 | 252 | 5.0 | 22.0 | 0.00 | 0.00 | 0.00 | 23 | 1021.1 |
| 20260902202559 | 69 | 335 | 13.0 | 22.0 | 0.00 | 0.00 | 0.00 | 24 | 1021.1 |
| 20260902202059 | 69 | 56 | 9.0 | 15.0 | 0.00 | 0.00 | 0.00 | 22 | 1021.1 |
| 20260902201606 | 70 | 181 | 1.0 | 11.0 | 0.00 | 0.00 | 0.00 | 22 | 1021.1 |
| 20260902201058 | 69 | 75 | 6.0 | 10.0 | 0.00 | 0.00 | 0.00 | 22 | 1021.1 |
| 20260902200558 | 69 | 302 | 5.0 | 10.0 | 0.00 | 0.00 | 0.00 | 22 | 1021.1 |
| 20260902200106 | 70 | 338 | 2.0 | 9.0 | 0.00 | 0.00 | 0.00 | 23 | 1021.1 |
| 20260902195602 | 69 | 273 | 3.0 | 9.0 | 0.00 | 0.00 | 0.00 | 24 | 1021.2 |
| 20260902195058 | 69 | 113 | 4.0 | 7.0 | 0.00 | 0.00 | 0.00 | 25 | 1021.3 |
| 20260902194610 | 70 | 49 | 2.0 | 9.0 | 0.00 | 0.00 | 0.00 | 24 | 1021.4 |
| 20260902194058 | 69 | 53 | 4.0 | 9.0 | 0.00 | 0.00 | 0.00 | 25 | 1021.4 |
| 20260902193559 | 69 | 250 | 4.0 | 9.0 | 0.00 | 0.00 | 0.00 | 25 | 1021.3 |
| 20260902193108 | 70 | 304 | 2.0 | 7.0 | 0.00 | 0.00 | 0.00 | 25 | 1021.3 |
| 20260902192600 | 70 | 257 | 2.0 | 5.0 | 0.00 | 0.00 | 0.00 | 23 | 1021.3 |
| 20260902192102 | 70 | 321 | 0.0 | 5.0 | 0.00 | 0.00 | 0.00 | 22 | 1021.4 |
| 20260902191605 | 68 | 0 | 1.0 | 5.0 | 0.00 | 0.00 | 0.00 | 26 | 1021.4 |
| 20260902191058 | 68 | 56 | 1.0 | 5.0 | 0.00 | 0.00 | 0.00 | 25 | 1021.5 |
| 20260902190558 | 68 | 338 | 1.0 | 5.0 | 0.00 | 0.00 | 0.00 | 25 | 1021.5 |
| 20260902190106 | 67 | 60 | 2.0 | 5.0 | 0.00 | 0.00 | 0.00 | 24 | 1021.7 |
| 20260902185558 | 67 | 307 | 2.0 | 5.0 | 0.00 | 0.00 | 0.00 | 24 | 1021.8 |
| 20260902185102 | 67 | 31 | 3.0 | 5.0 | 0.00 | 0.00 | 0.00 | 25 | 1021.9 |
| 20260902184609 | 66 | 54 | 1.0 | 4.0 | 0.00 | 0.00 | 0.00 | 24 | 1022.1 |
| 20260902184059 | 66 | 305 | 1.0 | 4.0 | 0.00 | 0.00 | 0.00 | 25 | 1022.0 |
| 20260902183558 | 64 | 0 | 0.0 | 4.0 | 0.00 | 0.00 | 0.00 | 28 | 1022.1 |
| 20260902183114 | 64 | 26 | 2.0 | 5.0 | 0.00 | 0.00 | 0.00 | 26 | 1022.2 |
| 20260902182558 | 65 | 0 | 1.0 | 5.0 | 0.00 | 0.00 | 0.00 | 26 | 1022.1 |
| 20260902182101 | 65 | 356 | 0.0 | 3.0 | 0.00 | 0.00 | 0.00 | 27 | 1022.3 |
| 20260902181607 | 65 | 305 | 0.0 | 4.0 | 0.00 | 0.00 | 0.00 | 27 | 1022.3 |
| 20260902181057 | 64 | 0 | 0.0 | 4.0 | 0.00 | 0.00 | 0.00 | 28 | 1022.5 |
| 20260902180557 | 63 | 0 | 1.0 | 4.0 | 0.00 | 0.00 | 0.00 | 30 | 1022.5 |
| 20260902180109 | 63 | 295 | 1.0 | 2.0 | 0.00 | 0.00 | 0.00 | 28 | 1022.6 |
| 20260902175559 | 63 | 0 | 0.0 | 3.0 | 0.00 | 0.00 | 0.00 | 30 | 1022.5 |
| 20260902175059 | 62 | 323 | 0.0 | 3.0 | 0.00 | 0.00 | 0.00 | 30 | 1022.5 |
| 20260902174610 | 61 | 0 | 0.0 | 2.0 | 0.00 | 0.00 | 0.00 | 32 | 1022.5 |
| 20260902174058 | 60 | 51 | 0.0 | 4.0 | 0.00 | 0.00 | 0.00 | 31 | 1022.5 |
| 20260902173558 | 59 | 321 | 1.0 | 4.0 | 0.00 | 0.00 | 0.00 | 34 | 1022.5 |
| 20260902173106 | 58 | 53 | 1.0 | 4.0 | 0.00 | 0.00 | 0.00 | 35 | 1022.6 |
| 20260902172558 | 57 | 0 | 0.0 | 3.0 | 0.00 | 0.00 | 0.00 | 36 | 1022.6 |
| 20260902172100 | 57 | 88 | 0.0 | 3.0 | 0.00 | 0.00 | 0.00 | 37 | 1022.6 |
| 20260902171610 | 56 | 51 | 0.0 | 2.0 | 0.00 | 0.00 | 0.00 | 38 | 1022.5 |
| 20260902171059 | 56 | 65 | 0.0 | 2.0 | 0.00 | 0.00 | 0.00 | 38 | 1022.5 |
| 20260902170558 | 56 | 53 | 0.0 | 2.0 | 0.00 | 0.00 | 0.00 | 37 | 1022.5 |
| 20260902170117 | 56 | 109 | 0.0 | 2.0 | 0.00 | 0.00 | 0.00 | 37 | 1022.4 |
| 20260902165559 | 56 | 0 | 1.0 | 2.0 | 0.00 | 0.00 | 0.00 | 36 | 1022.5 |
| 20260902165101 | 57 | 93 | 0.0 | 2.0 | 0.00 | 0.00 | 0.00 | 36 | 1022.5 |
| 20260902164624 | 56 | 0 | 0.0 | 3.0 | 0.00 | 0.00 | 0.00 | 37 | 1022.4 |
| 20260902164058 | 56 | 81 | 0.0 | 3.0 | 0.00 | 0.00 | 0.00 | 37 | 1022.6 |
| 20260902163600 | 57 | 81 | 2.0 | 3.0 | 0.00 | 0.00 | 0.00 | 36 | 1022.4 |
| 20260902163109 | 57 | 63 | 0.0 | 2.0 | 0.00 | 0.00 | 0.00 | 37 | 1022.5 |
| 20260902162602 | 56 | 89 | 0.0 | 2.0 | 0.00 | 0.00 | 0.00 | 37 | 1022.5 |
| 20260902162059 | 55 | 127 | 0.0 | 1.0 | 0.00 | 0.00 | 0.00 | 39 | 1022.7 |
| 20260902161616 | 54 | 0 | 0.0 | 3.0 | 0.00 | 0.00 | 0.00 | 38 | 1022.8 |
| 20260902161059 | 54 | 0 | 0.0 | 3.0 | 0.00 | 0.00 | 0.00 | 38 | 1022.7 |
| 20260902160558 | 54 | 49 | 1.0 | 3.0 | 0.00 | 0.00 | 0.00 | 39 | 1022.6 |
| 20260902155558 | 55 | 49 | 1.0 | 3.0 | 0.00 | 0.00 | 0.00 | 38 | 1022.5 |
| 20260902155058 | 56 | 57 | 1.0 | 3.0 | 0.00 | 0.00 | 0.00 | 37 | 1022.4 |
| 20260902154602 | 57 | 63 | 0.0 | 3.0 | 0.00 | 0.00 | 0.00 | 38 | 1022.3 |
| 20260902154058 | 56 | 224 | 1.0 | 3.0 | 0.00 | 0.00 | 0.00 | 37 | 1022.6 |
| 20260902153558 | 55 | 0 | 0.0 | 3.0 | 0.00 | 0.00 | 0.00 | 38 | 1022.6 |
| 20260902153117 | 54 | 251 | 0.0 | 3.0 | 0.00 | 0.00 | 0.00 | 40 | 1022.5 |
| 20260902152557 | 53 | 0 | 0.0 | 2.0 | 0.00 | 0.00 | 0.00 | 41 | 1022.4 |
| 20260902152057 | 52 | 134 | 0.0 | 2.0 | 0.00 | 0.00 | 0.00 | 46 | 1022.4 |
| 20260902151608 | 52 | 115 | 0.0 | 2.0 | 0.00 | 0.00 | 0.00 | 48 | 1022.4 |
| 20260902151059 | 51 | 0 | 0.0 | 1.0 | 0.00 | 0.00 | 0.00 | 49 | 1022.2 |
| 20260902150558 | 50 | 0 | 0.0 | 1.0 | 0.00 | 0.00 | 0.00 | 51 | 1022.3 |
| 20260902150106 | 50 | 135 | 0.0 | 1.0 | 0.00 | 0.00 | 0.00 | 50 | 1022.3 |
| 20260902145558 | 49 | 0 | 0.0 | 1.0 | 0.00 | 0.00 | 0.00 | 50 | 1022.3 |
| 20260902145058 | 48 | 0 | 0.0 | 1.0 | 0.00 | 0.00 | 0.00 | 54 | 1022.3 |
| 20260902144627 | 47 | 94 | 0.0 | 1.0 | 0.00 | 0.00 | 0.00 | 52 | 1022.3 |
| 20260902144058 | 46 | 0 | 0.0 | 0.0 | 0.00 | 0.00 | 0.00 | 55 | 1022.4 |
| 20260902143559 | 45 | 0 | 0.0 | 1.0 | 0.00 | 0.00 | 0.00 | 55 | 1022.3 |
| 20260902143115 | 43 | 0 | 0.0 | 1.0 | 0.00 | 0.00 | 0.00 | 59 | 1022.1 |
| 20260902142559 | 41 | 0 | 0.0 | 3.0 | 0.00 | 0.00 | 0.00 | 60 | 1022.0 |
| 20260902142059 | 41 | 0 | 0.0 | 3.0 | 0.00 | 0.00 | 0.00 | 59 | 1022.0 |
| 20260902141605 | 41 | 0 | 0.0 | 0.0 | 0.00 | 0.00 | 0.00 | 58 | 1021.9 |
| 20260902141058 | 41 | 0 | 0.0 | 1.0 | 0.00 | 0.00 | 0.00 | 58 | 1021.8 |
| 20260902140601 | 41 | 0 | 0.0 | 1.0 | 0.00 | 0.00 | 0.00 | 57 | 1021.7 |
| 20260902140105 | 41 | 171 | 0.0 | 1.0 | 0.00 | 0.00 | 0.00 | 57 | 1021.8 |
| 20260902135558 | 41 | 0 | 0.0 | 2.0 | 0.00 | 0.00 | 0.00 | 57 | 1021.8 |
| 20260902135058 | 40 | 0 | 0.0 | 2.0 | 0.00 | 0.00 | 0.00 | 56 | 1022.0 |
| 20260902134605 | 40 | 185 | 0.0 | 2.0 | 0.00 | 0.00 | 0.00 | 55 | 1022.0 |
| 20260902134058 | 40 | 0 | 0.0 | 1.0 | 0.00 | 0.00 | 0.00 | 55 | 1021.7 |
| 20260902133558 | 40 | 165 | 0.0 | 2.0 | 0.00 | 0.00 | 0.00 | 54 | 1022.0 |
| 20260902133103 | 40 | 0 | 0.0 | 2.0 | 0.00 | 0.00 | 0.00 | 54 | 1021.7 |
| 20260902132558 | 40 | 0 | 0.0 | 2.0 | 0.00 | 0.00 | 0.00 | 53 | 1021.6 |
| 20260902132058 | 40 | 0 | 0.0 | 2.0 | 0.00 | 0.00 | 0.00 | 54 | 1021.4 |
| 20260902131607 | 40 | 162 | 0.0 | 2.0 | 0.00 | 0.00 | 0.00 | 52 | 1021.5 |
| 20260902131151 | 41 | 0 | 1.0 | 2.0 | 0.00 | 0.00 | 0.00 | 52 | 1021.4 |
| 20260902130559 | 41 | 0 | 0.0 | 2.0 | 0.00 | 0.00 | 0.00 | 49 | 1021.1 |
| 20260902130104 | 43 | 255 | 0.0 | 2.0 | 0.00 | 0.00 | 0.00 | 48 | 1021.3 |
| 20260902125558 | 43 | 58 | 0.0 | 3.0 | 0.00 | 0.00 | 0.00 | 51 | 1021.1 |
| 20260902125058 | 42 | 115 | 0.0 | 3.0 | 0.00 | 0.00 | 0.00 | 48 | 1021.1 |
| 20260902124610 | 42 | 233 | 0.0 | 2.0 | 0.00 | 0.00 | 0.00 | 49 | 1021.3 |
| 20260902124100 | 42 | 0 | 0.0 | 2.0 | 0.00 | 0.00 | 0.00 | 49 | 1021.2 |
| 20260902123559 | 43 | 188 | 0.0 | 2.0 | 0.00 | 0.00 | 0.00 | 49 | 1021.3 |
| 20260902123104 | 42 | 54 | 0.0 | 2.0 | 0.00 | 0.00 | 0.00 | 51 | 1021.3 |
| 20260902122600 | 42 | 163 | 0.0 | 1.0 | 0.00 | 0.00 | 0.00 | 50 | 1021.2 |
| 20260902122058 | 42 | 140 | 0.0 | 1.0 | 0.00 | 0.00 | 0.00 | 49 | 1021.2 |
| 20260902121613 | 41 | 165 | 0.0 | 3.0 | 0.00 | 0.00 | 0.00 | 49 | 1021.3 |
| 20260902121058 | 40 | 0 | 1.0 | 3.0 | 0.00 | 0.00 | 0.00 | 48 | 1021.3 |
| 20260902120558 | 41 | 174 | 0.0 | 3.0 | 0.00 | 0.00 | 0.00 | 48 | 1021.3 |
| 20260902120111 | 41 | 0 | 0.0 | 4.0 | 0.00 | 0.00 | 0.00 | 47 | 1021.2 |
| 20260902115558 | 41 | 148 | 1.0 | 4.0 | 0.00 | 0.00 | 0.00 | 48 | 1021.0 |
| 20260902115058 | 41 | 162 | 0.0 | 2.0 | 0.00 | 0.00 | 0.00 | 47 | 1021.0 |
| 20260902114619 | 42 | 236 | 1.0 | 2.0 | 0.00 | 0.00 | 0.00 | 46 | 1020.9 |
| 20260902114058 | 42 | 162 | 0.0 | 2.0 | 0.00 | 0.00 | 0.00 | 45 | 1020.8 |
| 20260902113557 | 42 | 158 | 0.0 | 2.0 | 0.00 | 0.00 | 0.00 | 46 | 1020.6 |
| 20260902113104 | 41 | 0 | 1.0 | 4.0 | 0.00 | 0.00 | 0.00 | 47 | 1020.6 |
| 20260902112559 | 40 | 0 | 1.0 | 4.0 | 0.00 | 0.00 | 0.00 | 47 | 1020.5 |
| 20260902112100 | 41 | 0 | 0.0 | 1.0 | 0.00 | 0.00 | 0.00 | 46 | 1020.7 |
| 20260902111605 | 40 | 154 | 0.0 | 1.0 | 0.00 | 0.00 | 0.00 | 46 | 1020.5 |
| 20260902111058 | 41 | 0 | 0.0 | 1.0 | 0.00 | 0.00 | 0.00 | 46 | 1020.5 |
| 20260902110600 | 41 | 0 | 0.0 | 3.0 | 0.00 | 0.00 | 0.00 | 45 | 1020.5 |
| 20260902110110 | 41 | 0 | 1.0 | 3.0 | 0.00 | 0.00 | 0.00 | 45 | 1020.5 |
| 20260902105602 | 41 | 155 | 0.0 | 2.0 | 0.00 | 0.00 | 0.00 | 44 | 1020.5 |
| 20260902105058 | 41 | 255 | 0.0 | 2.0 | 0.00 | 0.00 | 0.00 | 45 | 1020.6 |
| 20260902104605 | 41 | 191 | 0.0 | 2.0 | 0.00 | 0.00 | 0.00 | 44 | 1020.6 |
| 20260902104058 | 41 | 206 | 0.0 | 2.0 | 0.00 | 0.00 | 0.00 | 44 | 1020.3 |
| 20260902103601 | 42 | 175 | 0.0 | 1.0 | 0.00 | 0.00 | 0.00 | 43 | 1020.4 |
| 20260902103120 | 43 | 0 | 0.0 | 1.0 | 0.00 | 0.00 | 0.00 | 42 | 1020.3 |
| 20260902102559 | 43 | 0 | 0.0 | 2.0 | 0.00 | 0.00 | 0.00 | 42 | 1020.2 |
| 20260902102059 | 43 | 0 | 0.0 | 3.0 | 0.00 | 0.00 | 0.00 | 41 | 1020.2 |
| 20260902101601 | 45 | 227 | 0.0 | 3.0 | 0.00 | 0.00 | 0.00 | 41 | 1020.2 |
| 20260902101058 | 44 | 98 | 1.0 | 3.0 | 0.00 | 0.00 | 0.00 | 41 | 1020.1 |
| 20260902100558 | 43 | 0 | 0.0 | 2.0 | 0.00 | 0.00 | 0.00 | 41 | 1020.2 |
| 20260902100101 | 43 | 0 | 0.0 | 2.0 | 0.00 | 0.00 | 0.00 | 42 | 1020.4 |
| 20260902095601 | 43 | 182 | 0.0 | 1.0 | 0.00 | 0.00 | 0.00 | 42 | 1020.2 |
| 20260902095058 | 45 | 0 | 0.0 | 5.0 | 0.00 | 0.00 | 0.00 | 40 | 1020.4 |
| 20260902094603 | 45 | 0 | 1.0 | 5.0 | 0.00 | 0.00 | 0.00 | 40 | 1020.4 |
| 20260902094059 | 44 | 118 | 3.0 | 5.0 | 0.00 | 0.00 | 0.00 | 42 | 1020.3 |
| 20260902093557 | 45 | 128 | 0.0 | 3.0 | 0.00 | 0.00 | 0.00 | 42 | 1020.5 |
| 20260902093111 | 46 | 249 | 0.0 | 3.0 | 0.00 | 0.00 | 0.00 | 39 | 1020.6 |
| 20260902092558 | 44 | 63 | 1.0 | 2.0 | 0.00 | 0.00 | 0.00 | 41 | 1020.5 |
| 20260902092101 | 44 | 147 | 0.0 | 2.0 | 0.00 | 0.00 | 0.00 | 43 | 1020.6 |
| 20260902091607 | 45 | 246 | 0.0 | 3.0 | 0.00 | 0.00 | 0.00 | 42 | 1020.6 |
| 20260902091100 | 45 | 133 | 0.0 | 3.0 | 0.00 | 0.00 | 0.00 | 42 | 1020.5 |
| 20260902090558 | 44 | 153 | 0.0 | 3.0 | 0.00 | 0.00 | 0.00 | 44 | 1020.7 |
| 20260902090105 | 44 | 0 | 0.0 | 3.0 | 0.00 | 0.00 | 0.00 | 43 | 1020.8 |
| 20260902085558 | 45 | 0 | 1.0 | 3.0 | 0.00 | 0.00 | 0.00 | 44 | 1020.7 |
| 20260902085059 | 43 | 118 | 1.0 | 3.0 | 0.00 | 0.00 | 0.00 | 45 | 1020.6 |
| 20260902084605 | 44 | 0 | 0.0 | 1.0 | 0.00 | 0.00 | 0.00 | 46 | 1020.6 |
| 20260902084059 | 44 | 0 | 0.0 | 2.0 | 0.00 | 0.00 | 0.00 | 45 | 1020.5 |
| 20260902083558 | 44 | 0 | 0.0 | 2.0 | 0.00 | 0.00 | 0.00 | 45 | 1020.7 |
| 20260902083104 | 44 | 0 | 0.0 | 2.0 | 0.00 | 0.00 | 0.00 | 45 | 1020.8 |
| 20260902082558 | 44 | 0 | 0.0 | 2.0 | 0.00 | 0.00 | 0.00 | 44 | 1020.9 |
| 20260902082058 | 45 | 217 | 0.0 | 2.0 | 0.00 | 0.00 | 0.00 | 44 | 1020.8 |
| 20260902081609 | 45 | 0 | 0.0 | 2.0 | 0.00 | 0.00 | 0.00 | 44 | 1020.9 |
| 20260902081058 | 45 | 0 | 0.0 | 2.0 | 0.00 | 0.00 | 0.00 | 45 | 1020.7 |
| 20260902080559 | 46 | 255 | 0.0 | 1.0 | 0.00 | 0.00 | 0.00 | 42 | 1020.7 |
| 20260902080105 | 46 | 207 | 0.0 | 2.0 | 0.00 | 0.00 | 0.00 | 42 | 1020.6 |
| 20260902075557 | 47 | 0 | 0.0 | 2.0 | 0.00 | 0.00 | 0.00 | 40 | 1020.8 |
| 20260902075058 | 48 | 248 | 0.0 | 4.0 | 0.00 | 0.00 | 0.00 | 40 | 1020.9 |
| 20260902074614 | 48 | 77 | 2.0 | 6.0 | 0.00 | 0.00 | 0.00 | 39 | 1020.6 |
| 20260902074058 | 48 | 93 | 3.0 | 6.0 | 0.00 | 0.00 | 0.00 | 40 | 1020.8 |
| 20260902073602 | 48 | 119 | 0.0 | 4.0 | 0.00 | 0.00 | 0.00 | 41 | 1020.7 |
| 20260902073109 | 48 | 0 | 1.0 | 5.0 | 0.00 | 0.00 | 0.00 | 40 | 1020.8 |
| 20260902072557 | 47 | 95 | 1.0 | 5.0 | 0.00 | 0.00 | 0.00 | 42 | 1020.6 |
| 20260902072058 | 47 | 143 | 0.0 | 4.0 | 0.00 | 0.00 | 0.00 | 43 | 1020.8 |
| 20260902071604 | 47 | 110 | 1.0 | 4.0 | 0.00 | 0.00 | 0.00 | 44 | 1020.6 |
| 20260902071058 | 47 | 161 | 2.0 | 5.0 | 0.00 | 0.00 | 0.00 | 44 | 1020.8 |
| 20260902070557 | 48 | 0 | 0.0 | 6.0 | 0.00 | 0.00 | 0.00 | 44 | 1020.6 |
| 20260902070107 | 48 | 55 | 3.0 | 6.0 | 0.00 | 0.00 | 0.00 | 45 | 1020.8 |
| 20260902065558 | 46 | 82 | 0.0 | 3.0 | 0.00 | 0.00 | 0.00 | 46 | 1020.6 |
| 20260902065100 | 47 | 0 | 0.0 | 5.0 | 0.00 | 0.00 | 0.00 | 46 | 1020.6 |
| 20260902064603 | 48 | 0 | 3.0 | 6.0 | 0.00 | 0.00 | 0.00 | 45 | 1020.6 |
| 20260902064059 | 49 | 0 | 0.0 | 8.0 | 0.00 | 0.00 | 0.00 | 44 | 1020.6 |
| 20260902063558 | 49 | 77 | 4.0 | 8.0 | 0.00 | 0.00 | 0.00 | 45 | 1020.4 |
| 20260902063104 | 48 | 63 | 3.0 | 6.0 | 0.00 | 0.00 | 0.00 | 45 | 1020.4 |
| 20260902062558 | 47 | 136 | 1.0 | 4.0 | 0.00 | 0.00 | 0.00 | 47 | 1020.6 |
| 20260902062058 | 47 | 0 | 1.0 | 3.0 | 0.00 | 0.00 | 0.00 | 48 | 1020.4 |
| 20260902061604 | 48 | 0 | 0.0 | 2.0 | 0.00 | 0.00 | 0.00 | 46 | 1020.6 |
| 20260902061059 | 48 | 0 | 0.0 | 2.0 | 0.00 | 0.00 | 0.00 | 45 | 1020.5 |
| 20260902060600 | 48 | 49 | 0.0 | 3.0 | 0.00 | 0.00 | 0.00 | 46 | 1020.1 |
| 20260902060116 | 48 | 0 | 0.0 | 3.0 | 0.00 | 0.00 | 0.00 | 47 | 1020.3 |
| 20260902055558 | 48 | 0 | 0.0 | 3.0 | 0.00 | 0.00 | 0.00 | 47 | 1020.2 |
| 20260902055059 | 48 | 0 | 1.0 | 3.0 | 0.00 | 0.00 | 0.00 | 48 | 1020.1 |
| 20260902054603 | 49 | 0 | 0.0 | 2.0 | 0.00 | 0.00 | 0.00 | 48 | 1020.2 |
| 20260902054058 | 48 | 66 | 0.0 | 3.0 | 0.00 | 0.00 | 0.00 | 50 | 1020.2 |
| 20260902053558 | 48 | 0 | 0.0 | 3.0 | 0.00 | 0.00 | 0.00 | 49 | 1020.4 |
| 20260902053107 | 48 | 0 | 0.0 | 3.0 | 0.00 | 0.00 | 0.00 | 48 | 1020.5 |
| 20260902052557 | 49 | 183 | 0.0 | 3.0 | 0.00 | 0.00 | 0.00 | 47 | 1020.4 |
| 20260902052057 | 50 | 0 | 1.0 | 3.0 | 0.00 | 0.00 | 0.00 | 46 | 1020.6 |
| 20260902051606 | 51 | 133 | 0.0 | 5.0 | 0.00 | 0.00 | 0.00 | 45 | 1020.6 |
| 20260902051059 | 52 | 0 | 0.0 | 5.0 | 0.00 | 0.00 | 0.00 | 44 | 1020.6 |
| 20260902050600 | 51 | 0 | 3.0 | 5.0 | 0.00 | 0.00 | 0.00 | 44 | 1020.7 |
| 20260902050108 | 51 | 163 | 0.0 | 6.0 | 0.00 | 0.00 | 0.00 | 45 | 1020.9 |
| 20260902045557 | 51 | 0 | 3.0 | 6.0 | 0.00 | 0.00 | 0.00 | 44 | 1020.9 |
| 20260902045058 | 51 | 114 | 0.0 | 2.0 | 0.00 | 0.00 | 0.00 | 46 | 1020.9 |
| 20260902044605 | 52 | 254 | 0.0 | 1.0 | 0.00 | 0.00 | 0.00 | 47 | 1020.9 |
| 20260902044058 | 52 | 261 | 0.0 | 2.0 | 0.00 | 0.00 | 0.00 | 46 | 1020.9 |
| 20260902043558 | 52 | 0 | 0.0 | 2.0 | 0.00 | 0.00 | 0.00 | 44 | 1020.9 |
| 20260902043113 | 53 | 68 | 0.0 | 2.0 | 0.00 | 0.00 | 0.00 | 45 | 1020.8 |
| 20260902042603 | 53 | 261 | 0.0 | 4.0 | 0.00 | 0.00 | 0.00 | 46 | 1020.9 |
| 20260902042058 | 53 | 0 | 0.0 | 4.0 | 0.00 | 0.00 | 0.00 | 46 | 1020.7 |
| 20260902041605 | 53 | 220 | 0.0 | 5.0 | 0.00 | 0.00 | 0.00 | 45 | 1020.6 |
| 20260902041057 | 54 | 0 | 0.0 | 6.0 | 0.00 | 0.00 | 0.00 | 45 | 1020.6 |
| 20260902040559 | 54 | 0 | 0.0 | 6.0 | 0.00 | 0.00 | 0.00 | 44 | 1020.6 |
| 20260902040108 | 55 | 0 | 1.0 | 6.0 | 0.00 | 0.00 | 0.00 | 41 | 1020.5 |
| 20260902035557 | 55 | 310 | 0.0 | 9.0 | 0.00 | 0.00 | 0.00 | 39 | 1020.3 |
| 20260902035059 | 55 | 50 | 2.0 | 10.0 | 0.00 | 0.00 | 0.00 | 37 | 1020.3 |
| 20260902034608 | 56 | 53 | 3.0 | 12.0 | 0.00 | 0.00 | 0.00 | 39 | 1020.2 |
| 20260902034058 | 57 | 17 | 2.0 | 19.0 | 0.00 | 0.00 | 0.00 | 37 | 1020.1 |
| 20260902033558 | 57 | 47 | 9.0 | 19.0 | 0.00 | 0.00 | 0.00 | 34 | 1019.9 |
| 20260902033108 | 58 | 192 | 2.0 | 6.0 | 0.00 | 0.00 | 0.00 | 33 | 1019.7 |
| 20260902032558 | 60 | 0 | 0.0 | 9.0 | 0.00 | 0.00 | 0.00 | 26 | 1019.5 |
| 20260902032058 | 61 | 234 | 3.0 | 11.0 | 0.00 | 0.00 | 0.00 | 18 | 1019.4 |
| 20260902031608 | 62 | 182 | 4.0 | 14.0 | 0.00 | 0.00 | 0.00 | 18 | 1019.5 |
| 20260902031101 | 62 | 155 | 7.0 | 19.0 | 0.00 | 0.00 | 0.00 | 16 | 1019.4 |
| 20260902030558 | 63 | 144 | 10.0 | 19.0 | 0.00 | 0.00 | 0.00 | 16 | 1019.5 |
| 20260902025558 | 63 | 129 | 10.0 | 16.0 | 0.00 | 0.00 | 0.00 | 16 | 1019.4 |
| 20260902025101 | 63 | 134 | 6.0 | 18.0 | 0.00 | 0.00 | 0.00 | 16 | 1019.4 |
| 20260902024611 | 63 | 103 | 11.0 | 18.0 | 0.00 | 0.00 | 0.00 | 16 | 1019.3 |
| 20260902024100 | 63 | 150 | 8.0 | 20.0 | 0.00 | 0.00 | 0.00 | 16 | 1019.3 |
| 20260902023558 | 63 | 150 | 10.0 | 20.0 | 0.00 | 0.00 | 0.00 | 16 | 1019.3 |
| 20260902023106 | 63 | 157 | 9.0 | 18.0 | 0.00 | 0.00 | 0.00 | 16 | 1019.3 |
| 20260902022558 | 64 | 131 | 10.0 | 18.0 | 0.00 | 0.00 | 0.00 | 16 | 1019.0 |
| 20260902022101 | 64 | 149 | 4.0 | 16.0 | 0.00 | 0.00 | 0.00 | 15 | 1019.0 |
| 20260902021604 | 64 | 91 | 7.0 | 16.0 | 0.00 | 0.00 | 0.00 | 16 | 1019.1 |
| 20260902021058 | 64 | 124 | 9.0 | 16.0 | 0.00 | 0.00 | 0.00 | 16 | 1019.1 |
| 20260902020558 | 64 | 136 | 5.0 | 11.0 | 0.00 | 0.00 | 0.00 | 16 | 1019.2 |
| 20260902020104 | 64 | 135 | 5.0 | 16.0 | 0.00 | 0.00 | 0.00 | 15 | 1019.1 |
| 20260902015557 | 65 | 164 | 9.0 | 16.0 | 0.00 | 0.00 | 0.00 | 15 | 1018.9 |
| 20260902015057 | 65 | 148 | 7.0 | 20.0 | 0.00 | 0.00 | 0.00 | 15 | 1018.8 |
| 20260902014604 | 66 | 146 | 6.0 | 20.0 | 0.00 | 0.00 | 0.00 | 14 | 1018.9 |
| 20260902014101 | 66 | 69 | 10.0 | 20.0 | 0.00 | 0.00 | 0.00 | 14 | 1018.9 |
| 20260902013558 | 66 | 139 | 6.0 | 12.0 | 0.00 | 0.00 | 0.00 | 14 | 1018.9 |
| 20260902013102 | 67 | 96 | 4.0 | 6.0 | 0.00 | 0.00 | 0.00 | 15 | 1018.9 |
| 20260902012558 | 67 | 162 | 0.0 | 13.0 | 0.00 | 0.00 | 0.00 | 15 | 1019.0 |
| 20260902012057 | 67 | 58 | 5.0 | 13.0 | 0.00 | 0.00 | 0.00 | 14 | 1018.9 |
| 20260902011605 | 68 | 184 | 6.0 | 12.0 | 0.00 | 0.00 | 0.00 | 13 | 1019.2 |
| 20260902011058 | 69 | 199 | 1.0 | 7.0 | 0.00 | 0.00 | 0.00 | 14 | 1019.0 |
| 20260902010558 | 69 | 0 | 3.0 | 7.0 | 0.00 | 0.00 | 0.00 | 13 | 1019.0 |
| 20260902010105 | 69 | 160 | 2.0 | 13.0 | 0.00 | 0.00 | 0.00 | 13 | 1019.1 |
| 20260902005555 | 69 | 259 | 1.0 | 13.0 | 0.00 | 0.00 | 0.00 | 13 | 1019.2 |
| 20260902005057 | 69 | 141 | 4.0 | 13.0 | 0.00 | 0.00 | 0.00 | 12 | 1019.3 |
| 20260902004603 | 69 | 302 | 4.0 | 12.0 | 0.00 | 0.00 | 0.00 | 13 | 1019.2 |
| 20260902004058 | 69 | 160 | 0.0 | 17.0 | 0.00 | 0.00 | 0.00 | 15 | 1019.4 |
| 20260902003600 | 69 | 149 | 6.0 | 17.0 | 0.00 | 0.00 | 0.00 | 12 | 1019.3 |
| 20260902003104 | 69 | 142 | 6.0 | 12.0 | 0.00 | 0.00 | 0.00 | 13 | 1019.4 |
| 20260902002557 | 70 | 131 | 3.0 | 9.0 | 0.00 | 0.00 | 0.00 | 12 | 1019.3 |
| 20260902002058 | 70 | 158 | 1.0 | 10.0 | 0.00 | 0.00 | 0.00 | 14 | 1019.4 |
| 20260902001607 | 70 | 229 | 4.0 | 17.0 | 0.00 | 0.00 | 0.00 | 13 | 1019.3 |
| 20260902001058 | 70 | 219 | 6.0 | 17.0 | 0.00 | 0.00 | 0.00 | 14 | 1019.3 |
| 20260902000558 | 70 | 136 | 6.0 | 15.0 | 0.00 | 0.00 | 0.00 | 13 | 1019.3 |
| 20260901235559 | 71 | 129 | 3.0 | 16.0 | 0.00 | 0.00 | 0.00 | 13 | 1019.4 |
| 20260901235100 | 71 | 158 | 2.0 | 13.0 | 0.00 | 0.00 | 0.00 | 14 | 1019.7 |
| 20260901234616 | 71 | 231 | 4.0 | 13.0 | 0.00 | 0.00 | 0.00 | 13 | 1019.7 |
| 20260901234055 | 71 | 160 | 4.0 | 13.0 | 0.00 | 0.00 | 0.00 | 13 | 1019.7 |
| 20260901233602 | 71 | 163 | 5.0 | 12.0 | 0.00 | 0.00 | 0.00 | 13 | 1019.7 |
| 20260901233108 | 71 | 226 | 3.0 | 13.0 | 0.00 | 0.00 | 0.00 | 13 | 1019.7 |
| 20260901232558 | 71 | 202 | 4.0 | 17.0 | 0.00 | 0.00 | 0.00 | 13 | 1019.9 |
| 20260901232058 | 71 | 63 | 6.0 | 17.0 | 0.00 | 0.00 | 0.00 | 13 | 1019.7 |
| 20260901231605 | 71 | 212 | 5.0 | 17.0 | 0.00 | 0.00 | 0.00 | 13 | 1019.9 |
| 20260901231058 | 72 | 245 | 7.0 | 17.0 | 0.00 | 0.00 | 0.00 | 12 | 1019.9 |
| 20260901230557 | 72 | 256 | 4.0 | 15.0 | 0.00 | 0.00 | 0.00 | 14 | 1019.8 |
| 20260901230105 | 72 | 262 | 9.0 | 15.0 | 0.00 | 0.00 | 0.00 | 13 | 1019.9 |
| 20260901225557 | 72 | 208 | 5.0 | 13.0 | 0.00 | 0.00 | 0.00 | 12 | 1019.9 |
| 20260901225057 | 73 | 223 | 4.0 | 11.0 | 0.00 | 0.00 | 0.00 | 11 | 1019.9 |
| 20260901224605 | 73 | 239 | 4.0 | 11.0 | 0.00 | 0.00 | 0.00 | 12 | 1019.8 |
| 20260901224057 | 73 | 220 | 1.0 | 12.0 | 0.00 | 0.00 | 0.00 | 14 | 1019.7 |
| 20260901223601 | 73 | 162 | 3.0 | 12.0 | 0.00 | 0.00 | 0.00 | 12 | 1019.8 |
| 20260901223105 | 73 | 252 | 5.0 | 12.0 | 0.00 | 0.00 | 0.00 | 11 | 1019.8 |
| 20260901222557 | 73 | 162 | 2.0 | 11.0 | 0.00 | 0.00 | 0.00 | 14 | 1019.7 |
| 20260901222057 | 73 | 217 | 4.0 | 14.0 | 0.00 | 0.00 | 0.00 | 13 | 1019.8 |